{"data":{"norad_id":51118,"epoch":"2026-09-20T03:47:06.676224Z","epoch_age_seconds":77758,"freshness":"FRESH","line1":"1 51118U 22005Q   26263.15771616  .00000280  00000+0  19439-4 0  9997","line2":"2 51118  53.1605 126.9670 0001394  84.2479 275.8682 15.34389515258355","mean_motion":15.34389515,"eccentricity":0.0001394,"inclination_deg":53.1605,"raan_deg":126.967,"arg_perigee_deg":84.2479,"mean_anomaly_deg":275.8682,"bstar":1.9439e-5,"rev_number":25835,"period_min":93.848399374653,"perigee_km":461.78078654046,"apogee_km":463.6880214879,"semimajor_km":6840.8714040142,"source":"CELESTRAK","updated_at":"2026-09-20T09:00:39.586659Z"}}